| time (UTC) | temp F | wind direction | speed knots | gust knots | rain 1hr in | rain 24hr in | rain mn in | humidity % | barometer mb |
| 20260503184527 | 56 | 338 | 5.2 | 13.0 | 0.00 | 0.00 | 0.00 | 36 | 1012.9 |
| 20260503183034 | 57 | 309 | 3.5 | 12.2 | 0.00 | 0.00 | 0.00 | 38 | 1013.2 |
| 20260503181524 | 56 | 310 | 5.2 | 11.3 | 0.00 | 0.00 | 0.00 | 37 | 1013.0 |
| 20260503180018 | 55 | 334 | 2.6 | 8.7 | 0.00 | 0.00 | 0.00 | 39 | 1013.2 |
| 20260503174523 | 55 | 211 | 6.1 | 12.2 | 0.00 | 0.00 | 0.00 | 42 | 1013.3 |
| 20260503173043 | 55 | 333 | 3.5 | 10.4 | 0.00 | 0.00 | 0.00 | 42 | 1013.4 |
| 20260503171515 | 53 | 190 | 3.5 | 15.6 | 0.00 | 0.00 | 0.00 | 44 | 1013.3 |
| 20260503071515 | 43 | 320 | 0.0 | 0.0 | 0.00 | 0.00 | 0.00 | 69 | 1011.0 |
| 20260503054524 | 47 | 320 | 0.0 | 1.7 | 0.00 | 0.00 | 0.00 | 62 | 1011.4 |
| 20260503053035 | 47 | 319 | 0.0 | 0.0 | 0.00 | 0.00 | 0.00 | 61 | 1011.6 |
| 20260503051515 | 48 | 319 | 0.0 | 0.9 | 0.00 | 0.00 | 0.00 | 59 | 1011.6 |
| 20260503050022 | 48 | 319 | 0.0 | 0.0 | 0.00 | 0.00 | 0.00 | 58 | 1011.7 |
| 20260503044559 | 49 | 322 | 0.0 | 1.7 | 0.00 | 0.00 | 0.00 | 57 | 1011.8 |
| 20260503043011 | 49 | 299 | 0.0 | 2.6 | 0.00 | 0.00 | 0.00 | 56 | 1011.9 |
| 20260503041518 | 49 | 303 | 0.0 | 3.5 | 0.00 | 0.00 | 0.00 | 55 | 1011.9 |
| 20260503040021 | 49 | 296 | 0.0 | 1.7 | 0.00 | 0.00 | 0.00 | 55 | 1011.9 |
| 20260503034529 | 50 | 311 | 0.0 | 3.5 | 0.00 | 0.00 | 0.00 | 55 | 1011.9 |
| 20260503031521 | 50 | 311 | 0.0 | 1.7 | 0.00 | 0.00 | 0.00 | 53 | 1011.8 |
| 20260503030031 | 50 | 11 | 0.0 | 1.7 | 0.00 | 0.00 | 0.00 | 52 | 1011.9 |
| 20260503023014 | 51 | 277 | 0.0 | 1.7 | 0.00 | 0.00 | 0.00 | 50 | 1012.1 |
| 20260503021520 | 52 | 317 | 0.0 | 2.6 | 0.00 | 0.00 | 0.00 | 49 | 1012.2 |
| 20260503020033 | 52 | 297 | 0.9 | 7.0 | 0.00 | 0.00 | 0.00 | 47 | 1012.1 |
| 20260503014528 | 53 | 290 | 0.9 | 2.6 | 0.00 | 0.00 | 0.00 | 48 | 1011.9 |
| 20260503013018 | 53 | 292 | 0.0 | 1.7 | 0.00 | 0.00 | 0.00 | 47 | 1012.0 |
| 20260503011521 | 53 | 294 | 0.0 | 4.3 | 0.00 | 0.00 | 0.00 | 46 | 1011.8 |
| 20260503010026 | 53 | 306 | 0.0 | 5.2 | 0.00 | 0.00 | 0.00 | 45 | 1011.8 |
| 20260503004527 | 54 | 11 | 0.9 | 2.6 | 0.00 | 0.00 | 0.00 | 44 | 1011.6 |
| 20260503003028 | 54 | 293 | 0.0 | 4.3 | 0.00 | 0.00 | 0.00 | 43 | 1011.4 |
| 20260503001525 | 55 | 167 | 0.9 | 4.3 | 0.00 | 0.00 | 0.00 | 41 | 1011.3 |
| 20260503000030 | 55 | 340 | 1.7 | 7.0 | 0.00 | 0.00 | 0.00 | 41 | 1011.2 |
| 20260502234546 | 55 | 265 | 0.9 | 4.3 | 0.00 | 0.00 | 0.00 | 43 | 1011.1 |
| 20260502233021 | 56 | 277 | 0.9 | 8.7 | 0.00 | 0.00 | 0.00 | 43 | 1010.9 |
| 20260502231530 | 57 | 69 | 0.9 | 6.1 | 0.00 | 0.00 | 0.00 | 41 | 1011.0 |
| 20260502230029 | 57 | 42 | 1.7 | 8.7 | 0.00 | 0.00 | 0.00 | 38 | 1011.1 |
| 20260502224525 | 58 | 273 | 1.7 | 7.0 | 0.00 | 0.00 | 0.00 | 39 | 1010.9 |
| 20260502223035 | 59 | 320 | 3.5 | 7.8 | 0.00 | 0.00 | 0.00 | 38 | 1010.8 |
| 20260502221523 | 59 | 338 | 1.7 | 7.0 | 0.00 | 0.00 | 0.00 | 37 | 1010.7 |
| 20260502220028 | 59 | 300 | 0.9 | 5.2 | 0.00 | 0.00 | 0.00 | 39 | 1010.6 |
| 20260502214525 | 59 | 300 | 0.9 | 3.5 | 0.00 | 0.00 | 0.00 | 38 | 1010.8 |
| 20260502213022 | 59 | 338 | 2.6 | 7.0 | 0.00 | 0.00 | 0.00 | 40 | 1010.7 |
| 20260502211533 | 59 | 16 | 0.9 | 4.3 | 0.00 | 0.00 | 0.00 | 41 | 1010.6 |
| 20260502210024 | 60 | 360 | 2.6 | 6.1 | 0.00 | 0.00 | 0.00 | 39 | 1010.3 |
| 20260502204536 | 60 | 30 | 0.9 | 6.1 | 0.00 | 0.00 | 0.00 | 39 | 1010.3 |
| 20260502203018 | 59 | 319 | 2.6 | 7.8 | 0.00 | 0.00 | 0.00 | 40 | 1010.5 |
| 20260502201514 | 60 | 274 | 1.7 | 6.1 | 0.00 | 0.00 | 0.00 | 41 | 1010.6 |
| 20260502200016 | 60 | 289 | 1.7 | 9.6 | 0.00 | 0.00 | 0.00 | 41 | 1010.8 |
| 20260502191516 | 60 | 340 | 3.5 | 10.4 | 0.00 | 0.00 | 0.00 | 41 | 1011.6 |
| 20260502190019 | 59 | 258 | 3.5 | 7.0 | 0.00 | 0.00 | 0.00 | 42 | 1011.7 |